Back to catalog

FENGYUN 1C DEB

AliveSSO
NORAD 31175·DEBRIS·🇨🇳 China

Launched May 10, 1999 from Taiyuan Satellite Launch Center

Loading…

Next Passes (next 24 hours)

TLE

FreshSource: Space-Track

Epoch: Sep 11, 2026, 06:10 UTC

1 31175U 99025BJD 26254.25696803  .00018429  00000-0  27851-2 0  9999
2 31175  98.3939 266.0960 0060750  33.6029 326.9007 14.73053794696359

Track FENGYUN 1C DEB in real time with AllMySat

Download on the App Store